Regional Weather Roundup
Issued by NWS

Home | Current Version | Previous Version | Graphics & Text | Print | Product List | Glossary On
Versions: 1 2 3 4 5 6 7 8 9 10 11 12 13 14 15 16 17 18 19 20 21 22 23 24 25 26 27 28 29 30 31 32 33 34 35 36 37 38 39 40 41 42 43 44 45 46 47 48 49 50
362
ASUS43 KLMK 231802
RWRKY
KENTUCKY REGIONAL WEATHER ROUNDUP
NATIONAL WEATHER SERVICE LOUISVILLE KY
100 PM EST TUE JAN 23 2018

NOTE "FAIR" INDICATES FEW OR NO CLOUDS BELOW 12,000 FEET
WITH NO SIGNIFICANT WEATHER AND/OR OBSTRUCTIONS TO VISIBILITY.

KYZ001>023-026-027-061>063-070>075-231900-
WESTERN AND SOUTH CENTRAL KENTUCKY

CITY           SKY/WX    TMP DP  RH WIND       PRES   REMARKS
PADUCAH        CLOUDY    40  29  64 W14       30.07R WCI  32
HENDERSON      CLOUDY    39  32  76 W9        30.03R WCI  33
OWENSBORO      CLOUDY    39  31  72 W18G25    30.02R WCI  30
HOPKINSVILLE   CLOUDY    41  30  64 W13       30.03S
BOWLING GREEN  CLOUDY    44  31  60 W13G18    30.01S
GLASGOW        NOT AVBL
$$

KYZ024-025-028>034-038-045-046-053-231900-
NORTH CENTRAL KENTUCKY

CITY           SKY/WX    TMP DP  RH WIND       PRES   REMARKS
LOUISVILLE/SDF CLOUDY    42  31  64 SW16G24   29.95R
LOUISVILLE/LOU CLOUDY    42  32  67 SW17      29.95R
FORT KNOX      CLOUDY    41  32  70 SW20      29.95S
$$

KYZ035>037-039>044-047>052-055>060-089>105-231900-
NORTHEAST KENTUCKY

CITY           SKY/WX    TMP DP  RH WIND       PRES   REMARKS
LEXINGTON      CLOUDY    41  28  60 W16G26    29.92R
COVINGTON      CLOUDY    39  33  79 SW15G24   29.86R WCI  31
FRANKFORT      CLOUDY    41  28  60 SW14G22   29.92R
$$

KYZ054-064>069-076>088-106>120-231900-
SOUTHEAST KENTUCKY

CITY           SKY/WX    TMP DP  RH WIND       PRES   REMARKS
JACKSON        CLOUDY    45  29  53 SW8G22    29.88S
LONDON         CLOUDY    45  29  53 NW13G21   29.93R
SOMERSET       NOT AVBL
MIDDLESBORO    FAIR      48  30  50 W8        29.93F
MONTICELLO     CLOUDY    47  30  51 W22G28    29.97S
$$





USA.gov is the U.S. government's official web portal to all federal, state and local government web resources and services.